This is the latest recevied weather packets stored in our database for station/object N3FU-13. If no packets are shown the sender has not sent any weather packets the latest 10 day(s).
| Time | Temp. | Humidity | Pressure | Rain* | Wind** | Luminosity | Snow |
|---|---|---|---|---|---|---|---|
| 1777816629 | 20° C | 88% | 1017.5 hPa | 0 mm | - | - | - |
| 1777815729 | 19.44° C | 90% | 1017.4 hPa | 0 mm | - | - | - |
| 1777814829 | 19.44° C | 92% | 1017.1 hPa | 0 mm | - | - | - |
| 1777813929 | 18.89° C | 93% | 1017 hPa | 0 mm | - | - | - |
| 1777813029 | 18.89° C | 94% | 1017 hPa | 0 mm | - | - | - |
| 1777812129 | 18.33° C | 95% | 1016.8 hPa | 0 mm | - | - | - |
| 1777811229 | 18.33° C | 95% | 1016.3 hPa | 0 mm | - | - | - |
| 1777810329 | 18.33° C | 96% | 1016.2 hPa | 0 mm | - | - | - |
| 1777809429 | 18.33° C | 97% | 1015.9 hPa | 0 mm | - | - | - |
| 1777808529 | 18.33° C | 97% | 1015.9 hPa | 0 mm | - | - | - |
| 1777807629 | 17.78° C | 97% | 1015.6 hPa | 0 mm | - | - | - |
| 1777806729 | 17.78° C | 97% | 1015.5 hPa | 0 mm | - | - | - |
| 1777806241 | 17.78° C | 98% | 1015.3 hPa | 0 mm | - | - | - |
| 1777805829 | 17.78° C | 98% | 1015.2 hPa | 0 mm | - | - | - |
| 1777804929 | 17.78° C | 98% | 1015.3 hPa | 0 mm | - | - | - |
| 1777804676 | 17.78° C | 98% | 1015.3 hPa | 0 mm | - | - | - |
| 1777804029 | 17.78° C | 98% | 1015.3 hPa | 0 mm | - | - | - |
| 1777803129 | 17.78° C | 99% | 1015.2 hPa | 0 mm | - | - | - |
| 1777802365 | 17.78° C | 99% | 1015.2 hPa | 0 mm | - | - | - |
| 1777802229 | 17.78° C | 99% | 1015.2 hPa | 0 mm | - | - | - |
| 1777801329 | 17.78° C | 99% | 1015.1 hPa | 0 mm | - | - | - |
| 1777800429 | 17.78° C | 99% | 1015 hPa | 0 mm | - | - | - |
| 1777799529 | 18.33° C | 99% | 1014.7 hPa | 0 mm | - | - | - |
| 1777798629 | 18.33° C | 99% | 1014.8 hPa | 0.25 mm | - | - | - |
| 1777797729 | 18.33° C | 99% | 1014.9 hPa | 0.25 mm | - | - | - |
* Rain latest hour (hover to see other rain measurements)
** Current wind speed in m/s (hover to see current wind gust speed)